Weather History for Point Salines, Grenada

Change the Weather History Date:

Saturday, February 15, 2014

  Actual Average Record
Temperature  
Mean Temperature 78 °F -  
Max Temperature 83 °F 83 °F 86 °F (1998)
Min Temperature 74 °F 74 °F 69 °F (2012)
Cooling Degree Days 14    
Growing Degree Days 28 (Base 50)    
Moisture  
Dew Point 72 °F    
Average Humidity 77    
Maximum Humidity 89    
Minimum Humidity 61    
Precipitation  
Precipitation 0.02 in - - ()
Sea Level Pressure  
Sea Level Pressure 29.99 in    
Wind  
Wind Speed 16 mph ()    
Max Wind Speed 69 mph    
Max Gust Speed -    
Visibility 6.8 miles    
Events Rain    
Averages and records for this station are not official NWS values.
T = Trace of Precipitation, MM = Missing Value Source: Averaged Metar Reports

Daily Weather History Graph

Daily Weather History Graph

Search for Another Location

Airport:

Trip Planner

Search our weather history database for the weather conditions in past years. The results will help you decide how hot, cold, wet, or windy it might be!

Date:

Astronomy

Feb. 15, 2014 Rise Set
Actual Time 6:28 AM AST 6:13 PM AST
Civil Twilight 6:07 AM AST 6:35 PM AST
Nautical Twilight 5:42 AM AST 7:00 PM AST
Astronomical Twilight 5:17 AM AST 7:25 PM AST
Moon 6:51 PM AST (2/15) 6:39 AM AST (2/15)
Length of Visible Light 12h 28m
Length of Day
11h 45m
Full, 100% of the Moon is Illuminated
Feb 15
Full
Feb 22
Last Quarter
Mar 1
New
Mar 8
First Quarter
Mar 16
Full

Hourly Weather History & Observations

Time (AST) Temp. Heat Index Dew Point Humidity Pressure Visibility Wind Dir Wind Speed Gust Speed Precip Events Conditions
12:00 AM 77.0 °F - 73.4 °F 89% 29.98 in 5.0 mi East 15.0 mph - N/A Rain Light Rain Showers
1:00 AM 77.0 °F - 73.4 °F 89% 29.98 in 6.2 mi East 11.5 mph - N/A   Scattered Clouds
2:00 AM 77 °F - 72 °F 79% 29.97 in 7 mi East 9.2 mph - -   Mostly Cloudy
3:00 AM 77.0 °F - 71.6 °F 83% 29.95 in 6.2 mi East 13.8 mph - N/A   Scattered Clouds
4:00 AM 77.0 °F - 71.6 °F 83% 29.95 in 6.2 mi East 13.8 mph - N/A   Partly Cloudy
5:00 AM 78 °F - 72 °F 75% 29.96 in 10 mi East 13.8 mph - -   Widespread Dust
5:00 AM 77.0 °F - 71.6 °F 83% 29.95 in 6.2 mi East 13.8 mph - N/A   Partly Cloudy
6:00 AM 77.0 °F - 71.6 °F 83% 29.98 in 6.2 mi ESE 17.3 mph - N/A   Mostly Cloudy
7:00 AM 78.8 °F - 71.6 °F 78% 29.98 in 6.2 mi ESE 17.3 mph - N/A   Mostly Cloudy
8:00 AM 80 °F - 71 °F 66% 30.01 in 7 mi ESE 18.4 mph - -   Widespread Dust
8:00 AM 80.6 °F 84.6 °F 71.6 °F 74% 30.01 in 6.2 mi ESE 18.4 mph - N/A   Partly Cloudy
9:00 AM 78.8 °F - 73.4 °F 83% 30.04 in 6.2 mi ESE 29.9 mph - N/A   Scattered Clouds
10:00 AM 80.6 °F 85.4 °F 73.4 °F 79% 30.04 in 6.2 mi East 25.3 mph - N/A   Partly Cloudy
11:00 AM 83 °F - 72 °F 61% 30.05 in 9 mi ESE 21.9 mph - -   Widespread Dust
11:00 AM 82.4 °F 87.2 °F 71.6 °F 70% 30.04 in 6.2 mi ESE 21.9 mph - N/A   Partly Cloudy
12:00 PM 82.4 °F 87.2 °F 71.6 °F 70% 30.04 in 6.2 mi SE 21.9 mph - N/A   Partly Cloudy
1:00 PM 82.4 °F 88.2 °F 73.4 °F 74% 30.01 in 6.2 mi ESE 23.0 mph - N/A   Partly Cloudy
2:00 PM 82 °F - 73 °F 69% 29.99 in 9 mi ESE 21.9 mph - -   Widespread Dust
2:00 PM 82.4 °F 88.2 °F 73.4 °F 74% 29.98 in 6.2 mi ESE 21.9 mph - N/A   Partly Cloudy
3:00 PM 82.4 °F 88.2 °F 73.4 °F 74% 29.95 in 6.2 mi ESE 23.0 mph - N/A   Partly Cloudy
4:00 PM 82.4 °F 88.2 °F 73.4 °F 74% 29.95 in 6.2 mi ESE 21.9 mph - N/A   Partly Cloudy
5:00 PM 82 °F - 73 °F 69% 29.96 in 9 mi ESE 20.7 mph - -   Widespread Dust
5:00 PM 82.4 °F 88.2 °F 73.4 °F 74% 29.95 in 6.2 mi ESE 20.7 mph - N/A   Partly Cloudy
6:00 PM 80.6 °F 85.4 °F 73.4 °F 79% 29.95 in 6.2 mi East 18.4 mph - N/A   Partly Cloudy
7:00 PM 78.8 °F - 71.6 °F 78% 29.98 in 6.2 mi East 16.1 mph - N/A   Partly Cloudy
8:00 PM - - 72 °F % 30.01 in 9 mi NNE 69.0 mph - -   Widespread Dust
8:00 PM 78.8 °F - 73.4 °F 83% 30.01 in 6.2 mi ESE 12.7 mph - N/A   Partly Cloudy
9:00 PM 78.8 °F - 71.6 °F 78% 30.01 in 6.2 mi ESE 11.5 mph - N/A   Partly Cloudy
10:00 PM 78.8 °F - 71.6 °F 78% 30.01 in 6.2 mi ESE 15.0 mph - N/A   Scattered Clouds
11:00 PM 79 °F - 72 °F 75% 30.02 in 9 mi East 17.3 mph - -   Widespread Dust
11:00 PM 78.8 °F - 73.4 °F 83% 30.01 in 6.2 mi East 17.3 mph - N/A   Scattered Clouds